Flag for Japan Weather past 2 weeks in Utsunomiya, Japan

Now
67 °F

Clear.


Feels Like: 67 °F
Forecast: 47 / 79 °F
Wind: 5 mph from Southwest

Location: Mito

Current Time: Apr 27, 2015 at 9:55:50 PM

Latest Report: Apr 27, 2015 at 9:00 PM


Visibility: 9 mi

Pressure: 30.05 "Hg

Humidity: 65%

Dew point: 55 °F

Location of UtsunomiyaLocation

Historic Weather in Utsunomiya — Graph

°F

Utsunomiya temperature yesterday

Maximum temperature yesterday: 72 °F (at 1:00 PM)
Minimum temperature yesterday: 44 °F (at 5:00 AM)
Average temperature yesterday: 60 °F

Past Weeks' High & Low Weather Summary

 TemperatureHumidityPressure
High81 °F (Apr 27, 2:00 PM)98% (Apr 14, 10:00 PM)30.48 "Hg (Apr 14, 10:00 PM)
Low39 °F (Apr 18, 4:00 AM)25% (Apr 18, 2:00 PM)29.44 "Hg (Apr 15, 4:00 PM)
Average57 °F76%29.98 "Hg
* Reported Apr 12 8:00 PM — Apr 27 8:00 PM, Utsunomiya, Weather by CustomWeather, © 2015

Note: Actual official high and low records may vary slightly from our data, if they occured in-between our weather recording intervals... More about our weather records

Advertising

Utsunomiya weather history for previous 24 hours

 ConditionsComfort  
Time TempWeatherWind HumidityBarometerVisibility
8:00 PM
Mon, Apr 27
69 °FMild.5 mph56%30.03 "HgN/A
7:00 PM72 °FMild.5 mph48%30.01 "HgN/A
6:00 PM75 °FMild.8 mph43%29.99 "HgN/A
5:00 PM79 °FPleasantly warm.9 mph31%29.98 "HgN/A
4:00 PM80 °FPleasantly warm.8 mph28%29.97 "HgN/A
3:00 PM81 °FSunny.9 mph32%29.97 "Hg9 mi
2:00 PM81 °FPleasantly warm.8 mph35%29.98 "HgN/A
1:00 PM80 °FPleasantly warm.8 mph35%30.01 "HgN/A
12:00 PM80 °FWarm.7 mph41%30.03 "HgN/A
11:00 AM76 °FMild.6 mph47%30.06 "HgN/A
10:00 AM72 °FMild.5 mph56%30.08 "HgN/A
9:00 AM67 °FSunny.5 mph61%30.09 "Hg6 mi
8:00 AM62 °FCool.2 mph68%30.10 "HgN/A
7:00 AM56 °FCool.3 mph82%30.11 "HgN/A
6:00 AM51 °FCool.2 mph91%30.10 "HgN/A
5:00 AM50 °FCool.3 mph94%30.09 "HgN/A
4:00 AM51 °FCool.1 mph93%30.09 "HgN/A
3:00 AM51 °FClear.5 mph94%30.09 "Hg6 mi
2:00 AM53 °FCool.2 mph93%30.09 "HgN/A
1:00 AM55 °FCool.1 mph88%30.10 "HgN/A
12:00 AM56 °FCool.3 mph85%30.11 "HgN/A
11:00 PM
Sun, Apr 26
59 °FCool.2 mph84%30.11 "HgN/A
10:00 PM61 °FCool.5 mph77%30.10 "HgN/A
9:00 PM63 °FClear.6 mph71%30.10 "Hg19 mi
Weather by CustomWeather, © 2015

See weather overviewHow to use our weather pages